Home > Weather > Groningen > Past weeks

Flag for Netherlands Past Weather in Groningen, Netherlands — Yesterday and Last 2 Weeks

Now
72 °F

Passing clouds.


Feels Like: 71 °F
Forecast: 56 / 70 °F
Wind: 12 mph from Southwest

Location: Groningen Eelde Airport

Current Time: Jul 25, 2016 at 4:09:28 PM

Latest Report: Jul 25, 2016 at 3:25 PM


Visibility: N/A

Pressure: 30.04 "Hg

Humidity: 83%

Dew Point: 66 °F

Location of GroningenLocation

Past Weather in Groningen — Graph

°F

Groningen Temperature Yesterday

Maximum temperature yesterday: 79 °F (at 5:55 PM)
Minimum temperature yesterday: 63 °F (at 5:25 AM)
Average temperature yesterday: 70 °F

High & Low Weather Summary for the Past Weeks

 TemperatureHumidityPressure
High90 °F (Jul 20, 4:25 PM)100% (Jul 12, 5:25 AM)30.24 "Hg (Jul 12, 5:25 AM)
Low48 °F (Jul 14, 2:25 AM)36% (Jul 20, 4:25 PM)29.68 "Hg (Jul 11, 3:25 AM)
Average66 °F80%30.02 "Hg
* Reported Jul 10 2:25 PM — Jul 25 2:55 PM, Groningen, Weather by CustomWeather, © 2016

Note: Actual official high and low records may vary slightly from our data, if they occured in-between our weather recording intervals... More about our weather records

Advertising

Groningen Weather History for the Previous 24 Hours

Scroll right to see more
 ConditionsComfort  
Time TempWeatherWind HumidityBarometerVisibility
2:55 PM
Mon, Jul 25
73 °FScattered clouds.10 mph78%30.04 "HgN/A
2:25 PM72 °FPartly sunny.8 mph78%30.04 "HgN/A
1:55 PM72 °FMostly cloudy.10 mph78%30.04 "HgN/A
1:25 PM72 °FMostly cloudy.10 mph78%30.04 "HgN/A
12:55 PM68 °FMostly cloudy.10 mph83%30.04 "HgN/A
12:25 PM68 °FCloudy.15 mph83%30.04 "HgN/A
11:55 AM70 °FBroken clouds.12 mph78%30.04 "HgN/A
11:25 AM72 °FBroken clouds.13 mph73%30.04 "HgN/A
10:55 AM72 °FClear.12 mph73%30.04 "HgN/A
10:25 AM72 °FClear.10 mph73%30.04 "HgN/A
9:55 AM68 °FClear.12 mph83%30.04 "HgN/A
9:25 AM68 °FClear.9 mph78%30.04 "HgN/A
8:55 AM66 °FOvercast.7 mph88%30.04 "HgN/A
8:25 AM66 °FClear.6 mph88%30.04 "HgN/A
7:55 AM66 °FClear.7 mph88%30.04 "Hg5 mi
7:25 AM64 °FClear.5 mph94%30.04 "Hg4 mi
6:55 AM63 °FFog.3 mph100%30.04 "Hg3 mi
6:25 AM63 °FFog.3 mph94%30.04 "Hg3 mi
5:55 AM63 °FFog.2 mph100%30.04 "Hg2 mi
5:25 AM61 °FFog.2 mph100%30.04 "Hg3 mi
4:55 AM61 °FFog.2 mph100%30.04 "Hg1 mi
4:25 AM61 °FFog.1 mph100%30.04 "Hg0 mi
3:55 AM63 °FFog.1 mph100%30.04 "Hg2 mi
3:25 AM63 °FFog.1 mph94%30.07 "Hg2 mi
2:55 AM64 °FFog.1 mph100%30.07 "Hg2 mi
2:25 AM64 °FFog.1 mph94%30.07 "Hg2 mi
1:55 AM63 °FFog.2 mph100%30.07 "Hg1 mi
1:25 AM63 °FFog.3 mph100%30.07 "Hg1 mi
12:55 AM64 °FFog.2 mph94%30.07 "Hg2 mi
12:25 AM66 °FFog.1 mph94%30.07 "Hg2 mi
11:55 PM
Sun, Jul 24
66 °FFog.3 mph94%30.07 "Hg3 mi
11:25 PM68 °FMild.5 mph88%30.07 "Hg4 mi
10:55 PM68 °FPassing clouds.6 mph88%30.07 "Hg4 mi
10:25 PM68 °FPassing clouds.5 mph88%30.07 "Hg4 mi
9:55 PM72 °FPassing clouds.3 mph83%30.07 "HgN/A
9:25 PM72 °FScattered clouds.3 mph88%30.07 "Hg6 mi
8:55 PM73 °FMostly cloudy.2 mph83%30.04 "HgN/A
8:25 PM73 °FBroken clouds.3 mph78%30.04 "HgN/A
7:55 PM73 °FBroken clouds.5 mph78%30.07 "HgN/A
7:25 PM77 °FWarm.1 mph65%30.04 "HgN/A
6:55 PM77 °FPassing clouds.2 mph69%30.07 "HgN/A
6:25 PM77 °FWarm.3 mph65%30.07 "HgN/A
5:55 PM79 °FScattered clouds.7 mph61%30.07 "HgN/A
5:25 PM77 °FBroken clouds.6 mph69%30.07 "HgN/A
4:55 PM77 °FPassing clouds.5 mph69%30.07 "HgN/A
4:25 PM77 °FMore clouds than sun.7 mph65%30.07 "HgN/A
Weather by CustomWeather, © 2016

See weather overviewHow to use our weather pages